Regional Weather Roundup
Issued by NWS

Home | Current Version | Previous Version | Text Only | Print | Product List | Glossary On
Versions: 1 2 3 4 5 6 7 8 9 10 11 12 13 14 15 16 17 18 19 20 21 22 23 24 25 26 27 28 29 30 31 32 33 34 35 36 37 38 39 40 41 42 43 44 45 46 47 48 49 50
000
ASUS45 KPSR 240910
RWRAZ

ARIZONA HOURLY REGIONAL WEATHER ROUNDUP
NATIONAL WEATHER SERVICE PHOENIX AZ
200 AM MST FRI MAY 24 2019

NOTE: FAIR INDICATES FEW OR NO CLOUDS BELOW 12,000 FEET WITH NO
SIGNIFICANT WEATHER AND/OR OBSTRUCTIONS TO VISIBILITY.

AZZ001>003-036-241000-
NORTHWEST ARIZONA

CITY           SKY/WX    TMP DP  RH WIND       PRES   REMARKS
BULLHEAD CITY  CLOUDY    64  45  48 SE5       29.93S
KINGMAN        PTCLDY    49  39  68 SE8       30.01S
$$

AZZ004>008-015-016-018-241000-
NORTH CENTRAL ARIZONA

CITY           SKY/WX    TMP DP  RH WIND       PRES   REMARKS
GRAND CANYON   PTCLDY    30  28  92 NE5       30.11S WCI  25
WILLIAMS       CLEAR     32  30  93 SE8       30.09F WCI  25
PRESCOTT       CLEAR     38  33  82 S7        30.06F WCI  33
FLAGSTAFF      CLEAR     27  25  92 CALM      30.09F
PAYSON         CLEAR     39  34  81 CALM      30.06
PAGE           PTCLDY    47  40  76 S3        30.03S
$$

AZZ009>014-017-241000-
NORTHEAST ARIZONA

CITY           SKY/WX    TMP DP  RH WIND       PRES   REMARKS
WINSLOW        CLEAR     36  29  75 E7        30.07F WCI  30
SAINT JOHNS    CLEAR     35  26  69 S6        30.07F WCI  30
WINDOW ROCK    CLEAR     30  26  85 CALM      30.11F
SHOW LOW       CLEAR     34  28  80 CALM      30.10S
$$

AZZ540-542>544-546-548-241000-
GREATER PHOENIX AREA

CITY           SKY/WX    TMP DP  RH WIND       PRES   REMARKS
PHOENIX        CLEAR     64  40  41 E3        29.90F
BUCKEYE          N/A     55  32  41 N6        29.93
LUKE AFB       CLEAR     59  38  46 NW7       29.91S
DEER VALLEY    CLEAR     59  37  44 N7        29.92F
SCOTTSDALE     CLEAR     60  38  43 NW3       29.93F
MESA-FALCON    CLEAR     62  37  39 N10       29.92F
MESA-GATEWAY   CLEAR     58  38  46 CALM      29.93F
$$

AZZ539-553-241000-
SOUTHWEST MARICOPA COUNTY AND PINAL COUNTY

CITY           SKY/WX    TMP DP  RH WIND       PRES   REMARKS
CASA GRANDE    CLEAR     62  36  37 N8        29.92F
GILA BEND      FAIR      58  28  31 S3        29.89F
$$

AZZ503-504-507>509-241000-
SOUTHEAST ARIZONA

CITY           SKY/WX    TMP DP  RH WIND       PRES   REMARKS
TUCSON         CLEAR     57  27  31 S3        29.96F
DAVIS-MONTHAN  CLEAR     55  28  35 E5        29.94F
NOGALES        CLEAR     47  22  37 CALM      29.98F
SIERRA VISTA   CLEAR     48  23  37 SW5       30.03F
DOUGLAS        CLEAR     47  23  38 N14       29.99F
SAFFORD        CLEAR     54  27  35 NW8       29.96F
$$

AZZ532-241000-
SOUTHWEST ARIZONA

CITY           SKY/WX    TMP DP  RH WIND       PRES   REMARKS
YUMA           CLEAR     62  46  55 W6        29.90F
$$

CAZ041-043-047-048-061-525>527-560>570-241000-
SOUTHERN CALIFORNIA

CITY           SKY/WX    TMP DP  RH WIND       PRES   REMARKS
DOWNTOWN L.A.  CLEAR     55  50  83 CALM      30.00F
L.A. AIRPORT   PTCLDY    58  51  78 VRB6      30.00F
SAN DIEGO      PTCLDY    58  51  78 N3        30.01F
BURBANK        CLEAR     51  32  48 CALM      30.00F
ONTARIO        PTCLDY    54  53  97 CALM      30.00F
RIVERSIDE      CLEAR     50  49  96 E3        30.00F
PALM SPRINGS   CLEAR     62  44  51 CALM      29.94F
EL CENTRO NAS  CLEAR     60  41  49 N5        29.93S
IMPERIAL       CLEAR     62  44  51 N5        29.90F
BLYTHE         CLEAR     63  40  42 CALM      29.90F
NEEDLES        CLEAR     63  44  50 W3        29.92F
$$

NVZ020-UTZ003-241000-
SOUTHERN NEVADA-UTAH

CITY           SKY/WX    TMP DP  RH WIND       PRES   REMARKS
LAS VEGAS      MOCLDY    61  43  51 S3        29.93F
SALT LAKE CITY MOCLDY    47  42  83 S7        29.93S
$$

NMZ009-TXZ055-241000-
NEW MEXICO-WEST TEXAS

CITY           SKY/WX    TMP DP  RH WIND       PRES   REMARKS
ALBUQUERQUE    PTCLDY    50  25  37 NW6       30.06S
EL PASO        CLEAR     62  19  19 N6        29.96F
$$


........................KEY........................
SKY/WX - SKY CONDITION/WEATHER
TMP    - TEMPERATURE IN FAHRENHEIT
DP     - DEW POINT IN FAHRENHEIT
RH     - RELATIVE HUMIDITY IN PERCENT
WIND   - DIRECTION AND SPEED IN MILES PER HOUR (MPH)
VRB    - VARIABLE WIND DIRECTION
PRES   - MEAN SEA LEVEL PRESSURE IN INCHES OF MERCURY
         F - FALLING PRESSURE   R - RISING PRESSURE
         S - STEADY PRESSURE
VSB    - VISIBILITY IN MILES
HX     - HEAT INDEX IN FAHRENHEIT
WCI    - WIND CHILL INDEX IN FAHRENHEIT
TC     - TEMPERATURE IN CELSIUS WHICH IS ALSO KNOWN AS
         TEMPERATURE IN CENTIGRADE
AFB    - AIR FORCE BASE
         LUKE AFB IS LUKE AIR FORCE BASE
         DAVIS-MONTHAN IS DAVIS-MONTHAN AIR FORCE BASE
NAS    - NAVAL AIR STATION
         EL CENTRO NAS IS EL CENTRO NAVAL AIR STATION
N/A    - NOT AVAILABLE




USA.gov is the U.S. government's official web portal to all federal, state and local government web resources and services.